Tracking 19562 objects as of 23-Mar-2019
HD Live streaming from Space Station
objects crossing your sky now

TIROS 4

Track TIROS 4 now!
10-day predictions
TIROS 4 is classified as:


NORAD ID: 226
Int'l Code: 1962-002A
Perigee: 691.5 km
Apogee: 802.6 km
Inclination: 48.3 °
Period: 99.6 minutes
Semi major axis: 7118 km
RCS: 0.8251 m2 (medium)
Launch date: February 8, 1962
Source: United States (US)
Launch site: AIR FORCE EASTERN TEST RANGE (AFETR)
aabbcc
Your satellite tracking list
Your tracking list is empty




NASA's NSSDC Master Catalog

Two Line Element Set (TLE):
1   226U 62002A   19081.49467175 -.00000148  00000-0  69497-5 0  9996
2   226  48.2962  77.9065 0078038 174.8783 185.2931 14.45643700  6718
Source of the keplerian elements: AFSPC